Warning: Javascript must be enabled to use all the features on this page!


Page Loading - Please Wait...

Click to hideNews Bulletins

USGS 04189260 Blanchard River at Ottawa OH

PROVISIONAL DATA SUBJECT TO REVISION

Click to hidestation-specific text
Station operated in cooperation with the Village of Ottawa and the Groundwater and Streamflow Information Program
 04189260 Blanchard River at Ottawa, OH
 LOCATION.--Lat 41°01'01", long 84°02'49", Putnam County, OH, Hydrologic 
     Unit 04100008, on right bank at downstream side of Oak Street, 200 ft. upstream 
     of B&O railroad bridge, 800 ft. upstream of SR65 bridge, 1,200 ft. southeast of 
     intersection of SR65 and US RT224 in the village of Ottawa, OH.
 DRAINAGE AREA.--628 mi2.
 PERIOD OF RECORD.--October 2009 to current water year.
Want to learn more about areas near this gage that are inundated during flooding? See the USGS flood-inundation mapper.

Boating safety tips
Available Parameters Available Period
All 2 Available Parameters for this site
  
00060 Discharge 2009-10-01  2017-05-30
00065 Gage height 2017-01-30  2017-05-30

Graph
Graph w/ stats
Graph w/o stats
Graph w/ (up to 3) parms
Table
Tab-separated
Days  (7)
 

  -- or --
Begin date
 

End date
 

Summary of all available data for this site
Instantaneous-data availability statement
Gage height, feet
TIMEMay 23May 24May 25May 26May 27May 28May 29May 30
00:00 EDT13.14P  10.86P  8.82P  7.95P  7.44P  16.61P  18.03P  19.81P  
00:30 EDT13.10P  10.79P  8.80P  7.94P  7.46P  16.67P  18.10P  19.81P  
01:00 EDT13.05P  10.75P  8.77P  7.92P  7.49P  16.76P  18.14P  19.81P  
01:30 EDT13.00P  10.69P  8.74P  7.91P  7.50P  16.83P  18.19P  19.83P  
02:00 EDT12.94P  10.64P  8.72P  7.90P  7.56P  16.92P  18.23P  19.84P  
02:30 EDT12.91P  10.58P  8.69P  7.88P  7.62P  16.99P  18.27P  19.83P  
03:00 EDT12.86P  10.53P  8.68P  7.87P  7.69P  17.06P  18.32P  19.85P  
03:30 EDT12.80P  10.48P  8.65P  7.85P  7.87P  17.15P  18.39P  19.85P  
04:00 EDT12.76P  10.43P  8.63P  7.85P  8.02P  17.21P  18.41P   
04:30 EDT12.72P  10.37P  8.61P  7.83P  8.16P  17.25P  18.48P   
05:00 EDT12.67P  10.32P  8.60P  7.82P  8.34P  17.33P  18.52P   
05:30 EDT12.63P  10.27P  8.57P  7.82P  8.52P  17.36P  18.57P   
06:00 EDT12.58P  10.22P  8.55P  7.80P  8.73P  17.40P  18.62P   
06:30 EDT12.53P  10.16P  8.53P  7.78P  8.96P  17.44P  18.63P   
07:00 EDT12.49P  10.12P  8.51P  7.78P  9.21P  17.46P  18.67P   
07:30 EDT12.45P  10.07P  8.49P  7.76P  9.47P  17.46P  18.72P   
08:00 EDT12.40P  10.03P  8.48P  7.76P  9.76P  17.49P  18.79P   
08:30 EDT12.36P  9.97P  8.46P  7.74P  10.08P  17.49P  18.81P   
09:00 EDT12.31P  9.92P  8.44P  7.73P  10.38P  17.52P  18.85P   
09:30 EDT12.26P  9.88P  8.42P  7.73P  10.69P  17.53P  18.91P   
10:00 EDT12.22P  9.83P  8.41P  7.72P  10.98P  17.55P  18.96P   
10:30 EDT12.19P  9.78P  8.39P  7.70P  11.29P  17.57P  18.95P   
11:00 EDT12.14P  9.74P  8.38P  7.69P  11.57P  17.59P  19.02P   
11:30 EDT12.09P  9.69P  8.35P  7.68P  11.90P  17.59P  19.05P   
12:00 EDT12.05P  9.66P  8.34P  7.67P  12.21P  17.59P  19.11P   
12:30 EDT12.01P  9.62P  8.32P  7.66P  12.51P  17.61P  19.17P   
13:00 EDT11.96P  9.57P  8.30P  7.65P  12.82P  17.62P  19.17P   
13:30 EDT11.91P  9.53P  8.29P  7.64P  13.11P  17.61P  19.21P   
14:00 EDT11.87P  9.49P  8.27P  7.63P  13.40P  17.63P  19.27P   
14:30 EDT11.82P  9.44P  8.25P  7.62P  13.66P  17.64P  19.31P   
15:00 EDT11.78P  9.41P  8.24P  7.61P  13.94P  17.66P  19.29P   
15:30 EDT11.73P  9.37P  8.22P  7.59P  14.20P  17.66P  19.36P   
16:00 EDT11.68P  9.33P  8.21P  7.58P  14.43P  17.69P  19.41P   
16:30 EDT11.63P  9.30P  8.18P  7.57P  14.64P  17.68P  19.45P   
17:00 EDT11.59P  9.26P  8.17P  7.56P  14.85P  17.69P  19.48P   
17:30 EDT11.53P  9.23P  8.15P  7.55P  15.03P  17.67P  19.50P   
18:00 EDT11.49P  9.19P  8.13P  7.53P  15.22P  17.67P  19.55P   
18:30 EDT11.44P  9.16P  8.12P  7.53P  15.39P  17.67P  19.60P   
19:00 EDT11.38P  9.13P  8.11P  7.51P  15.55P  17.70P  19.59P   
19:30 EDT11.33P  9.09P  8.09P  7.50P  15.68P  17.75P  19.65P   
20:00 EDT11.27P  9.06P  8.07P  7.50P  15.81P  17.73P  19.65P   
20:30 EDT11.23P  9.03P  8.05P  7.48P  15.93P  17.78P  19.69P   
21:00 EDT11.18P  9.00P  8.04P  7.48P  16.04P  17.82P  19.71P   
21:30 EDT11.12P  8.96P  8.02P  7.47P  16.15P  17.84P  19.73P   
22:00 EDT11.07P  8.94P  8.01P  7.46P  16.27P  17.87P  19.76P   
22:30 EDT11.01P  8.90P  7.99P  7.46P  16.36P  17.92P  19.75P   
23:00 EDT10.96P  8.87P  7.97P  7.45P  16.44P  17.95P  19.78P   
23:30 EDT10.90P  8.84P  7.97P  7.44P  16.51P  17.99P  19.80P   
COUNT484848484848488
MAX13.1410.868.827.9516.5117.9919.8019.85
MIN10.908.847.977.447.4416.6118.0319.81

Explanation
  P  Provisional data subject to revision.